GFSSW_prec_cloud_219.txt.gz
Cloud_Cover
9 8 1 0 0 0 0 0 0 0 0 0 0 0 0 0 0 0 0 1 1 2 5 0 5 5 15 54 40 13 96 100 76 39 91 100 85 5 88 82 97 100 68 96 100
100 86 14 7 0 0 0 0 0 0 0 0 0 0 0 2 0 0 0 0 0 0 4 0 5 8 37 84 91 100 87 100 100 100 100 93 73 15 16 72 54 53 98 86 92
100 100 60 18 3 1 0 0 0 0 0 0 0 0 0 0 0 0 0 0 0 0 5 5 5 40 14 38 37 100 88 96 100 100 100 100 100 96 100 71 52 85 99 99 100
100 100 7 8 0 1 0 0 0 0 0 0 0 0 1 0 0 0 0 0 0 0 5 5 5 22 81 98 6 100 76 72 100 100 99 100 100 100 100 88 99 52 99 100 100
100 100 21 4 1 0 0 0 0 0 0 0 0 0 0 0 0 0 0 0 0 0 5 5 5 23 99 83 29 10 96 100 100 99 100 100 100 100 100 96 86 51 98 99 100
99 17 11 5 0 0 0 0 0 0 0 0 0 35 0 0 0 0 0 0 0 0 5 2 5 24 73 81 17 47 99 64 100 66 93 92 73 66 20 46 94 99 100 100 67
0 0 0 0 0 0 0 0 0 0 0 0 0 2 0 0 0 0 0 0 0 0 2 4 5 5 92 96 4 2 100 21 100 51 100 100 68 100 50 95 99 100 90 100 100
0 0 0 0 0 0 0 0 0 0 0 0 2 0 0 0 0 0 0 0 0 0 0 4 2 3 5 4 5 5 95 100 98 62 84 91 100 96 72 77 100 87 96 89 8
0 0 0 0 0 0 0 0 0 0 0 1 0 0 0 0 0 0 0 0 0 0 0 0 0 5 4 0 4 5 100 100 100 38 71 55 100 100 100 100 100 98 90 56 6
0 0 0 0 0 0 0 0 0 1 16 0 0 0 0 0 0 0 0 0 0 0 0 0 0 2 3 5 20 99 94 16 100 100 100 100 70 100 100 100 100 100 88 14 47
0 0 0 0 0 0 2 0 0 0 0 0 0 0 0 0 0 0 0 0 0 0 0 0 0 3 5 5 68 17 76 42 100 100 100 90 100 98 98 90 100 100 45 5 8
0 0 0 0 0 0 8 0 0 0 0 0 0 0 0 0 0 0 0 0 0 0 0 3 0 0 5 73 65 46 36 81 99 100 100 94 100 100 94 46 100 99 55 76 98
0 0 34 1 5 2 0 0 0 0 0 0 0 0 0 0 0 0 0 0 0 0 0 0 0 5 5 23 77 34 66 86 94 94 1 51 48 34 100 100 100 92 94 100 56
6 70 100 11 9 0 0 0 0 0 0 0 0 0 0 0 0 0 0 0 0 0 0 0 0 5 5 23 62 64 5 94 95 34 83 21 80 27 100 100 100 100 100 100 100
16 20 16 57 0 0 0 0 0 0 0 0 0 0 0 0 0 0 0 0 0 0 0 0 0 5 5 5 27 24 100 55 100 95 100 67 2 100 100 64 100 100 70 85 48
0 21 3 0 0 0 0 0 0 0 0 0 0 0 0 0 0 0 0 0 0 0 0 0 0 5 5 5 6 11 97 64 77 100 100 91 100 100 100 99 29 56 38 99 97
0 1 19 0 0 0 0 0 0 0 0 0 0 0 0 0 0 0 0 0 0 0 0 0 0 4 5 25 15 68 100 100 97 93 61 57 100 100 46 96 78 100 100 97 100
0 34 0 0 0 0 0 0 0 0 0 0 0 0 0 0 0 0 0 0 0 0 0 0 0 0 0 6 22 70 100 100 99 100 66 11 100 73 100 79 5 7 100 97 39
18 0 0 0 0 0 0 0 0 1 0 0 0 0 0 0 0 0 0 0 0 0 0 0 0 0 0 4 16 17 95 61 100 100 100 100 14 10 20 5 100 5 16 100 100
0 0 0 0 0 0 0 0 2 0 0 0 0 0 0 2 0 0 0 0 0 0 0 0 0 0 0 0 3 51 83 93 91 95 100 100 100 93 34 3 83 17 39 85 5
0 2 0 0 0 0 0 31 1 0 0 0 0 3 0 100 41 0 3 0 0 0 0 0 0 0 2 0 0 0 32 100 95 98 100 100 100 100 97 22 98 97 15 16 32
0 35 0 0 0 5 16 65 0 0 0 0 0 0 3 35 1 66 99 3 0 0 0 0 0 2 1 0 0 0 0 17 100 7 98 100 100 100 91 60 80 71 73 30 100
3 4 0 0 9 99 70 3 1 0 0 1 0 0 1 0 2 55 100 1 0 0 0 0 0 0 93 49 0 0 2 1 5 26 69 100 47 100 100 21 8 33 77 75 100
2 44 5 5 1 1 18 45 100 23 0 0 2 0 0 15 0 18 5 0 0 0 0 0 0 0 32 75 0 0 0 0 0 3 2 45 100 100 100 61 49 63 4 96 100
0 4 5 25 14 5 24 14 96 100 52 5 4 0 3 7 23 3 29 0 0 0 0 0 0 3 0 100 64 0 0 0 0 0 4 4 90 98 100 95 96 8 20 100 100
4 1 5 5 4 2 85 68 37 73 99 100 14 91 30 64 83 100 5 3 5 4 0 0 2 63 0 0 2 4 2 0 0 0 0 1 55 100 100 96 3 0 91 98 43
2 2 4 8 1 8 92 87 97 89 100 89 97 100 100 84 32 3 17 2 3 5 5 0 18 0 4 5 0 0 2 0 0 0 0 0 1 84 80 0 0 0 4 12 6

GFSSW_prec_cloud_222.txt.gz
Cloud_Cover
54 96 36 22 14 2 0 0 0 0 0 0 0 0 0 0 0 0 0 0 0 0 4 1 0 4 98 96 100 100 100 100 100 100 78 63 42 49 7 85 100 25 13 72 100
84 97 46 18 9 0 0 0 0 0 0 0 0 0 0 1 0 0 0 0 0 0 0 0 4 2 100 95 98 100 100 100 100 100 51 51 98 83 86 67 97 88 90 56 100
46 100 27 15 3 2 0 0 0 0 0 0 0 0 0 0 0 0 1 0 0 0 0 0 12 7 7 100 100 100 100 80 100 100 100 95 100 100 100 91 100 100 89 98 100
14 15 15 0 1 0 0 0 0 0 0 0 0 0 0 0 0 0 0 0 0 0 0 0 2 29 46 41 50 5 41 63 90 98 100 100 100 100 100 100 100 87 49 93 100
8 4 0 0 0 0 0 0 0 0 0 0 0 0 0 0 0 0 0 0 0 0 0 0 0 88 4 71 63 97 3 46 22 86 100 87 100 100 100 100 100 98 84 66 95
0 1 0 0 0 0 0 0 0 0 0 0 0 35 0 0 0 0 0 0 0 0 0 0 0 100 94 43 90 80 80 25 100 89 99 100 100 64 58 96 89 100 92 92 90
0 0 0 0 0 0 0 0 0 0 0 0 0 0 0 0 0 0 0 0 0 0 0 0 3 12 66 12 95 3 16 79 76 70 85 100 100 100 96 45 70 100 48 98 100
0 0 0 0 0 0 0 0 0 0 0 0 0 0 0 0 0 0 0 0 0 0 0 14 57 0 4 31 15 21 23 95 65 55 100 100 100 100 100 59 96 100 100 100 100
0 0 0 0 0 0 0 0 0 0 0 0 0 0 0 0 0 0 0 0 0 0 0 0 1 0 0 1 5 31 88 14 100 100 100 100 100 100 100 99 100 100 100 100 100
0 0 0 4 0 0 4 0 0 0 0 0 0 0 0 0 0 0 0 0 0 0 0 0 0 0 0 4 10 98 100 42 77 100 100 100 100 100 100 100 100 100 100 100 100
0 0 0 6 0 0 6 0 0 0 0 0 0 0 0 0 0 0 0 0 0 0 0 0 0 0 0 2 25 100 42 81 95 100 100 100 100 100 100 100 100 100 100 100 100
0 0 0 0 0 2 7 0 0 0 0 0 0 0 0 0 0 0 0 0 0 0 0 5 3 0 0 2 10 100 100 95 77 100 100 100 100 100 100 100 100 100 100 100 100
0 0 2 4 9 5 0 0 0 0 0 0 0 0 0 0 0 0 0 0 0 0 0 0 0 0 5 5 53 99 85 66 89 87 100 100 100 100 100 100 99 100 99 100 100
0 0 0 75 3 0 0 0 0 0 0 0 0 0 0 0 0 0 0 0 0 0 0 0 0 4 3 5 4 7 62 37 100 79 98 100 42 100 100 100 100 100 100 28 100
0 0 0 58 0 0 0 0 0 0 0 0 0 0 0 0 0 0 0 0 0 0 0 0 0 0 5 2 5 5 100 29 37 91 37 96 94 98 100 100 100 100 86 49 98
0 0 1 0 0 0 0 0 0 0 0 0 0 0 0 0 0 0 0 0 0 0 0 0 0 0 1 57 3 5 91 100 21 47 83 51 54 100 85 56 88 100 100 100 100
0 0 5 0 0 0 0 0 0 0 0 0 0 0 0 0 0 0 0 0 0 0 0 0 0 0 0 58 99 4 68 75 100 78 35 45 81 98 46 100 100 86 100 100 100
0 0 0 0 0 0 0 0 0 0 0 0 0 0 0 0 0 0 0 0 0 0 0 0 0 0 0 0 13 10 49 64 100 4 15 1 34 85 5 94 100 61 100 100 100
8 0 0 0 0 0 0 0 0 1 36 90 30 0 0 0 0 0 0 0 0 0 0 0 0 0 0 1 41 13 100 22 85 32 96 63 40 0 98 35 90 56 99 6 100
0 0 0 0 0 0 0 0 1 40 0 0 0 0 0 0 0 0 2 0 0 0 0 0 0 0 0 0 52 15 81 40 58 48 99 18 99 100 100 59 0 5 96 98 57
0 2 0 0 0 0 0 11 68 49 0 0 0 0 0 0 74 18 0 1 0 0 0 0 0 0 0 0 0 0 92 100 68 93 11 2 58 99 100 68 98 29 85 27 5
0 89 2 0 0 3 77 80 8 0 0 0 0 0 0 0 53 5 85 97 95 0 0 0 0 0 0 1 0 4 31 81 84 5 20 33 32 100 66 100 100 93 17 24 5
0 3 0 0 25 87 46 100 5 1 3 1 1 0 0 0 2 100 100 100 98 0 0 0 0 0 0 2 5 0 5 5 98 68 4 4 0 100 55 100 100 100 32 0 0
0 45 82 3 58 3 3 2 6 42 4 0 5 5 4 0 0 52 93 100 3 5 0 0 0 0 0 0 2 3 0 4 15 56 69 27 15 100 40 96 100 100 87 1 0
1 13 0 5 26 1 1 2 6 48 2 26 83 5 5 5 4 0 99 65 95 5 0 0 0 0 0 85 100 90 5 66 2 4 100 100 3 98 99 100 97 44 4 0 0
0 0 1 6 5 0 54 81 4 25 63 63 7 98 100 48 100 90 50 99 100 100 5 0 0 0 0 97 100 99 99 0 0 5 2 18 93 100 100 99 31 99 2 3 0
0 3 4 84 94 2 4 1 0 29 30 100 57 85 100 65 2 1 6 5 98 99 63 3 8 27 0 80 100 91 64 79 5 98 88 72 100 100 100 100 100 32 4 0 0

GFSSW_prec_cloud_225.txt.gz
Cloud_Cover
10 2 12 20 12 8 0 0 0 0 0 0 0 0 0 0 0 0 0 0 0 0 0 4 5 63 83 93 100 100 100 100 100 100 72 28 57 5 82 75 54 50 100 53 95
10 20 18 4 3 0 0 0 0 0 0 0 0 0 0 0 0 0 0 0 0 0 0 0 11 6 89 100 100 100 100 95 100 100 100 27 7 5 52 95 70 5 46 28 88
8 5 0 0 0 0 0 0 0 0 0 0 0 0 0 0 0 0 0 0 0 0 0 5 3 82 100 98 100 100 100 100 100 100 100 93 99 50 76 48 6 24 95 10 76
5 2 3 0 0 0 0 0 0 0 0 0 0 0 0 0 0 0 0 0 0 0 0 0 7 68 100 100 14 71 100 100 100 100 100 100 100 47 100 100 29 6 35 24 46
8 0 0 1 0 0 0 0 0 0 0 0 0 0 0 0 0 0 0 0 0 0 0 0 4 5 7 23 9 82 83 100 96 100 100 89 100 100 99 100 54 80 71 17 56
4 0 0 0 1 0 0 0 0 0 0 0 0 0 0 0 0 0 0 0 0 0 0 0 5 5 33 84 62 94 87 76 100 80 94 94 100 100 100 100 63 71 44 8 77
0 0 0 0 12 11 0 0 0 0 0 0 0 0 0 0 0 0 0 0 0 0 0 0 5 66 33 5 94 100 99 45 5 100 35 61 95 100 63 96 100 97 18 5 94
0 0 0 0 0 17 21 4 0 0 0 0 0 0 0 0 0 0 0 0 0 0 0 0 0 8 5 5 5 60 13 43 18 73 41 92 100 100 100 100 96 66 28 4 17
10 1 0 0 4 23 11 0 0 0 0 0 0 0 0 0 0 0 0 0 0 0 0 0 1 2 4 5 1 1 40 31 88 100 21 100 100 100 100 99 91 96 85 4 56
45 3 0 0 19 32 13 0 0 0 0 0 0 0 0 0 0 0 0 0 0 0 0 0 0 0 0 1 1 89 19 96 48 100 88 100 100 91 52 96 100 100 98 100 100
21 0 0 0 0 43 14 0 0 0 0 0 0 0 0 0 0 0 0 0 0 0 0 0 0 0 0 0 4 86 75 70 70 50 100 52 100 100 100 98 99 100 100 100 100
0 0 0 0 0 1 44 0 0 0 0 0 0 0 0 0 0 0 0 0 0 0 0 0 0 0 0 0 4 6 91 63 88 92 54 91 100 100 100 96 51 100 100 60 100
0 0 0 0 1 0 0 0 0 0 0 0 0 0 0 0 0 0 0 0 0 0 0 0 0 0 0 0 1 5 76 84 100 61 99 100 100 100 100 99 99 100 100 100 97
0 0 0 0 0 0 0 0 0 0 0 0 0 0 0 0 0 0 0 0 0 0 0 0 0 0 0 0 0 1 5 85 99 90 100 88 100 100 100 100 100 100 100 100 97
0 0 0 0 0 0 0 0 0 0 0 0 0 0 0 0 0 0 0 0 0 0 0 0 0 0 0 0 0 0 5 100 100 83 92 93 95 100 97 100 100 100 100 100 100
0 0 0 0 0 0 0 0 0 0 0 0 0 0 0 0 0 0 0 0 0 0 0 0 0 0 0 0 0 0 4 100 100 100 61 47 100 100 100 100 100 100 100 100 100
0 0 24 0 0 0 0 0 0 0 0 0 0 0 0 0 0 0 0 0 0 0 0 0 0 0 0 0 2 0 2 49 99 81 8 49 79 100 100 92 100 100 100 100 100
0 0 0 0 0 0 0 0 0 0 0 0 0 1 0 0 0 0 0 0 0 0 0 0 0 0 0 0 0 5 4 95 99 44 10 2 0 52 100 100 100 100 98 100 100
0 0 0 0 0 0 0 0 0 0 48 0 2 4 0 0 0 0 0 0 0 0 0 0 0 0 0 0 1 1 32 5 97 6 51 5 3 100 79 30 98 99 100 91 84
0 0 0 0 0 0 0 0 0 1 67 0 90 2 0 0 0 0 0 0 0 0 0 0 0 0 0 0 0 3 10 50 64 58 48 5 96 62 39 50 9 100 85 64 12
0 0 0 0 0 0 0 1 8 79 3 0 1 0 0 0 0 0 0 0 1 0 0 0 0 0 0 0 0 0 4 97 6 41 0 2 1 100 95 89 85 95 100 100 95
0 2 0 0 0 4 30 5 64 88 82 1 0 0 0 0 0 0 0 0 16 0 0 0 0 0 0 0 0 0 0 92 5 36 0 5 1 100 100 100 100 100 10 75 100
0 7 11 1 21 85 96 22 99 70 1 3 0 0 0 0 0 0 9 57 5 5 0 0 0 0 0 0 0 0 0 10 94 99 0 4 7 14 100 92 74 100 97 87 21
0 58 60 89 9 28 5 2 21 16 0 0 0 0 3 0 0 42 100 38 16 95 2 0 0 0 0 0 0 0 0 0 25 38 1 0 43 97 100 46 91 100 93 95 49
0 4 0 1 20 1 5 0 0 0 1 0 0 0 0 0 0 5 100 9 67 26 4 0 0 0 0 0 0 0 0 0 97 87 30 3 65 100 33 3 97 38 76 60 53
0 0 0 5 45 5 0 0 0 0 0 0 2 0 0 0 0 0 3 64 66 94 0 5 0 0 0 0 1 1 0 0 1 3 5 89 100 95 35 100 32 17 100 99 100
0 0 1 5 18 8 0 0 0 0 0 5 5 4 1 0 0 0 0 0 48 95 99 30 5 0 0 0 37 80 5 65 95 88 1 96 100 11 95 68 5 5 88 5 6

GFSSW_prec_cloud_228.txt.gz
Cloud_Cover
9 10 3 14 6 0 4 0 0 0 0 0 0 0 0 0 0 0 0 0 0 0 1 16 68 88 100 100 100 100 100 100 100 100 100 100 100 5 6 100 100 54 95 40 40
15 9 10 2 5 0 0 0 0 0 0 0 0 0 0 0 0 0 0 0 0 0 0 5 86 39 100 100 100 100 98 100 100 100 100 100 84 41 13 34 70 100 99 54 89
14 13 11 0 0 0 0 0 0 0 0 0 0 0 0 0 0 0 0 0 0 0 0 5 70 96 96 8 100 100 94 68 59 100 100 100 100 86 34 28 99 100 99 28 22
12 12 4 3 3 1 0 0 0 0 0 0 0 0 0 0 0 0 0 0 0 0 0 5 50 70 95 48 26 100 100 100 100 100 100 100 100 100 98 100 100 100 96 36 7
12 7 5 10 14 12 13 2 1 0 0 0 0 0 0 0 0 0 0 0 0 0 0 8 98 15 58 90 77 84 100 75 100 100 100 100 100 100 100 100 100 29 54 68 5
12 10 0 4 8 1 4 3 0 0 0 0 0 0 1 0 0 0 0 0 0 0 0 4 86 42 73 99 46 10 16 5 5 100 100 100 100 100 100 100 100 74 22 54 26
29 1 0 0 0 10 5 9 0 0 0 0 0 0 0 0 0 0 0 0 0 0 0 4 86 67 6 42 100 100 96 4 5 98 100 100 100 100 100 100 100 100 100 83 29
100 40 10 0 0 0 9 3 0 0 0 0 0 0 0 0 0 0 0 0 0 0 0 0 10 92 1 7 94 100 55 4 5 31 100 77 100 100 100 100 100 100 100 100 83
64 0 0 0 0 0 4 0 0 0 0 0 0 0 0 0 0 0 0 0 0 0 0 0 0 6 2 5 4 5 5 4 5 99 100 88 83 7 100 100 100 100 100 100 94
0 0 0 0 0 0 0 0 0 0 0 0 0 0 0 0 0 0 0 0 0 0 0 0 0 0 2 5 12 36 4 24 14 71 6 46 4 74 94 100 100 100 100 100 94
0 0 0 0 0 0 12 0 0 0 0 0 0 0 0 0 0 0 0 0 0 0 0 0 0 0 1 5 51 5 25 45 88 7 74 99 75 7 94 100 100 100 100 92 97
0 0 0 0 0 0 47 0 0 0 0 0 0 0 0 0 0 0 0 0 0 0 0 0 0 0 0 5 65 7 74 14 58 3 6 20 36 34 11 92 74 100 74 100 100
0 0 0 0 0 0 0 0 0 0 0 0 0 0 0 0 0 0 0 0 0 0 0 0 0 0 0 0 7 8 48 5 5 3 45 33 69 92 100 100 84 100 91 100 100
0 0 0 0 0 0 0 0 0 0 0 0 0 0 0 0 0 0 0 0 0 0 0 0 0 0 0 0 0 5 74 64 89 7 5 61 98 100 98 98 96 83 79 100 100
0 0 0 0 0 0 0 0 0 0 0 0 0 0 0 0 0 0 0 0 0 0 0 0 0 0 0 0 0 0 100 94 13 6 4 5 33 100 100 100 98 84 100 100 100
0 0 37 0 0 0 0 0 0 0 0 0 0 0 0 0 0 0 0 0 0 0 0 0 0 0 0 0 0 0 95 99 91 74 5 5 6 100 100 83 100 97 95 100 100
0 0 85 0 0 0 0 0 0 0 0 0 0 0 0 0 0 0 0 0 0 0 0 0 0 0 0 0 0 0 52 99 69 37 3 55 2 2 87 99 100 98 98 99 99
0 7 1 11 0 0 0 0 0 0 0 0 0 0 0 0 0 0 0 0 0 0 0 0 0 0 0 0 0 0 27 44 68 18 20 99 12 2 0 59 100 70 99 100 100
0 0 0 0 0 0 0 0 0 0 0 0 0 0 0 0 0 0 0 0 0 0 0 0 0 0 0 0 0 0 0 9 100 100 7 74 5 0 0 4 98 99 100 100 100
0 0 0 0 0 0 0 0 1 0 0 0 3 2 2 0 0 0 0 0 0 0 0 0 0 0 0 0 0 0 0 5 54 76 5 3 1 4 0 98 100 100 100 98 93
0 0 0 0 0 0 0 2 9 3 4 3 7 5 56 18 0 0 0 0 0 0 0 0 0 0 0 0 0 0 0 5 39 96 3 0 1 5 0 1 98 100 100 100 100
0 0 0 1 0 0 5 2 29 5 5 0 0 2 0 5 5 0 0 0 0 0 0 0 0 0 0 0 0 0 0 5 54 68 17 0 3 21 92 50 55 5 97 100 100
0 0 4 7 5 4 5 0 5 0 0 0 0 0 0 0 1 0 0 0 0 0 0 0 0 0 0 0 0 0 0 6 32 58 42 3 1 27 46 67 38 2 3 57 100
0 1 6 5 5 5 4 5 4 2 55 96 2 0 0 0 2 1 0 0 0 0 1 0 0 0 0 0 0 0 0 1 100 67 5 4 0 95 85 11 5 40 81 92 100
0 0 0 5 4 2 0 0 0 0 0 9 2 0 0 0 0 0 0 0 0 0 0 4 0 0 0 0 0 0 0 0 56 62 73 35 55 98 45 66 99 29 36 59 73
0 0 0 0 4 5 0 3 0 0 0 0 0 0 0 0 0 0 0 0 1 0 0 0 0 0 0 0 0 0 0 0 0 81 100 100 47 100 35 1 9 0 43 100 96
0 0 0 4 0 1 0 0 0 0 0 0 0 0 0 0 0 0 0 0 21 0 0 0 0 0 0 0 0 0 2 0 2 2 100 69 16 5 45 62 52 24 90 100 96

GFSSW_prec_cloud_234.txt.gz
Cloud_Cover
2 3 5 4 8 11 17 20 10 0 0 0 0 0 0 0 0 0 0 0 0 3 75 100 100 100 96 100 100 91 100 100 100 69 79 62 98 100 100 100 100 100 100 29 96
6 9 4 11 4 9 10 15 13 15 1 0 0 0 0 1 0 0 0 0 0 0 17 19 100 100 100 100 100 100 100 100 100 100 96 82 80 98 100 100 100 99 76 37 30
70 70 8 5 3 8 14 7 13 10 7 0 0 0 0 0 0 0 0 0 0 0 5 19 100 100 80 74 100 100 100 75 100 100 100 99 77 97 72 100 79 63 64 19 8
97 55 14 10 13 5 1 0 0 0 8 0 0 0 0 0 0 0 0 0 0 0 1 28 98 100 90 54 39 100 100 100 63 99 100 100 100 100 93 100 90 100 6 5 80
2 9 13 14 17 11 7 3 0 9 6 9 0 0 0 0 0 0 0 0 0 0 0 5 42 90 94 82 31 100 49 100 38 100 100 100 100 100 100 100 100 100 54 14 55
0 2 12 21 15 17 11 2 17 18 5 0 0 0 0 0 0 0 0 0 0 0 0 4 44 16 88 21 5 6 57 38 71 100 100 100 100 100 100 100 100 100 72 21 8
0 0 2 6 6 2 3 10 28 16 12 0 0 0 0 0 0 0 0 0 0 0 0 5 25 63 21 5 5 5 5 5 51 100 96 92 100 100 100 100 100 100 15 5 23
0 2 0 0 0 0 0 16 28 18 2 0 0 0 0 0 0 0 0 0 0 0 0 7 32 93 59 2 4 1 4 1 5 34 67 75 100 71 82 84 100 100 76 24 94
0 0 0 0 0 0 0 3 0 0 0 0 0 0 0 0 0 0 0 0 0 0 0 2 68 21 41 64 1 5 5 0 4 0 1 0 46 46 60 20 81 100 98 30 92
0 0 0 0 0 0 6 0 0 0 0 0 0 0 0 0 0 0 0 0 0 0 0 0 20 12 79 15 5 5 5 5 5 0 0 2 3 0 46 70 28 11 25 45 100
0 0 0 0 2 0 4 0 0 0 0 0 0 0 0 0 0 0 0 0 0 0 0 0 0 5 5 5 20 14 5 5 5 0 0 0 5 5 60 91 63 5 10 100 100
0 0 15 10 5 0 1 0 0 0 0 0 0 0 0 0 0 0 0 0 0 0 0 0 0 0 5 67 24 9 5 50 10 5 0 0 0 0 6 5 64 16 62 100 99
0 6 6 45 0 0 0 0 0 0 0 0 0 0 0 0 0 0 0 0 0 0 0 0 0 0 12 84 24 49 7 6 5 5 2 0 0 0 20 22 5 5 5 29 88
0 10 100 98 0 0 0 0 0 0 0 0 0 0 0 0 0 0 0 0 0 0 0 0 0 0 0 14 71 13 5 60 5 5 3 4 2 0 0 1 71 12 5 13 68
5 67 100 94 24 0 0 0 0 0 0 0 0 0 0 0 0 0 0 0 0 0 0 0 0 0 0 0 53 26 90 71 5 5 4 1 0 5 5 0 0 4 12 27 85
33 64 98 0 3 0 0 0 0 0 0 0 0 0 0 0 0 0 0 0 0 0 0 0 0 0 0 0 0 5 100 15 5 16 3 0 0 0 1 4 4 4 5 50 5
40 65 87 0 0 0 0 0 0 0 0 0 0 0 0 0 0 0 0 0 0 0 0 0 0 0 0 0 0 5 82 98 60 5 1 26 0 0 0 5 3 4 3 7 58
2 0 6 3 0 0 0 0 0 0 0 0 0 0 0 0 0 0 0 0 0 0 0 0 0 0 0 0 0 0 5 9 8 4 0 37 0 0 5 5 5 3 11 49 100
0 0 0 0 0 0 0 0 0 0 0 0 0 0 0 0 0 0 0 0 0 0 0 0 0 0 0 0 0 0 0 36 81 80 0 0 2 7 5 0 0 0 0 66 88
0 0 0 0 0 0 0 0 0 0 0 0 0 0 0 0 0 0 0 0 0 0 0 0 0 0 0 0 0 0 0 0 0 2 3 0 3 77 4 5 3 1 1 4 31
0 0 0 0 0 0 0 0 1 3 2 0 0 0 0 0 0 0 0 0 0 0 0 0 0 0 0 0 0 0 0 0 0 0 0 0 0 100 2 4 3 5 5 21 98
0 0 0 0 0 0 0 0 0 85 16 5 0 0 2 0 0 0 0 0 0 0 0 0 0 0 0 0 0 0 0 0 0 0 0 0 0 78 90 7 4 3 5 50 73
0 0 5 0 0 0 1 1 0 0 76 20 5 0 98 36 6 0 0 0 0 0 0 0 0 0 0 0 0 0 0 0 0 0 0 0 0 0 41 98 6 1 0 0 0
0 0 0 5 3 0 0 0 0 0 0 0 3 0 14 100 100 94 1 0 0 0 0 0 0 0 0 0 0 0 0 0 0 0 0 0 0 33 0 0 0 0 1 2 0
2 0 0 4 58 76 0 0 0 0 0 0 0 0 0 28 100 100 97 8 0 0 0 0 0 0 0 0 0 0 0 0 0 0 0 0 0 0 4 2 20 14 3 38 80
0 0 0 0 4 100 62 0 0 0 0 0 0 0 0 0 94 100 31 100 53 5 0 0 0 0 0 0 0 0 0 0 0 0 0 0 0 0 0 58 76 72 64 100 100
6 34 0 1 0 36 100 0 0 0 0 0 0 0 0 0 0 58 100 98 82 94 5 0 0 0 0 0 0 0 59 0 6 34 20 3 28 94 68 81 100 100 100 100 100

GFSSW_prec_cloud_240.txt.gz
Cloud_Cover
5 10 10 16 5 6 0 0 0 0 0 0 0 0 0 0 0 0 0 5 4 93 100 72 8 65 94 97 100 10 53 76 53 96 16 5 9 5 100 100 82 92 57 3 5
22 18 24 16 0 5 0 3 0 1 0 0 0 0 0 1 0 0 0 0 1 6 100 100 29 52 100 92 68 100 51 97 19 30 99 45 86 15 51 100 100 99 62 4 0
21 23 23 20 18 14 6 15 2 0 8 0 0 0 0 2 0 0 0 0 0 4 17 100 76 94 100 83 89 100 88 95 92 19 25 27 9 5 16 100 100 100 7 5 0
12 21 19 16 9 4 14 18 19 8 7 0 0 0 0 0 0 0 0 0 0 0 5 100 98 34 99 99 90 94 100 90 89 100 48 99 81 63 69 92 100 100 5 5 5
17 10 14 11 2 3 4 2 18 20 14 2 0 0 0 0 0 0 0 0 0 0 0 79 42 74 18 26 65 12 83 98 88 17 67 51 100 100 42 90 100 100 37 65 27
12 10 0 0 0 2 6 0 22 26 15 0 0 34 0 0 0 0 0 0 0 0 0 8 69 72 33 88 6 16 5 60 48 100 96 47 100 100 15 65 97 100 20 100 87
0 0 0 3 11 19 16 15 17 25 14 0 0 0 0 0 0 0 0 0 0 0 0 0 57 9 5 7 5 5 5 5 6 29 5 90 100 100 32 32 100 100 87 100 0
0 0 0 16 19 13 14 8 0 0 0 0 1 0 0 0 0 0 0 0 0 0 0 0 2 7 5 5 5 5 1 38 4 5 0 4 79 100 100 67 96 71 100 3 49
2 4 2 14 19 23 1 0 0 0 0 0 2 0 0 0 0 0 0 0 0 0 0 0 0 1 4 3 5 4 94 14 0 0 0 0 82 3 100 95 60 38 43 5 5
1 3 5 53 74 6 0 3 0 14 0 0 0 0 0 0 0 0 0 0 0 0 0 0 0 0 5 6 5 5 6 5 2 0 0 0 9 15 2 11 83 9 52 100 99
0 4 81 100 5 0 14 1 0 0 0 0 0 0 0 0 0 0 0 0 0 0 0 0 0 1 4 0 98 2 53 64 0 0 0 0 0 19 10 18 96 60 33 5 4
64 100 100 27 0 0 8 0 5 1 0 0 0 0 0 0 0 0 0 0 0 0 0 0 0 0 5 7 79 5 12 63 2 0 0 0 0 0 0 4 4 28 81 7 5
100 100 96 11 1 33 0 0 0 1 0 0 0 0 0 0 0 0 0 0 0 0 0 0 0 0 5 5 37 64 5 42 45 0 0 0 1 0 0 0 3 30 40 28 22
100 100 99 2 25 0 0 0 0 0 0 0 0 0 0 0 0 0 0 0 0 0 0 0 0 0 0 5 4 17 62 6 28 4 53 0 86 5 0 0 0 5 8 7 25
100 94 55 0 0 0 0 0 0 0 0 0 0 0 0 0 0 0 0 0 0 0 0 0 0 0 0 0 5 5 98 5 5 5 45 4 4 72 2 0 0 3 55 5 5
57 32 8 0 0 0 0 0 0 0 0 0 0 0 0 0 0 0 0 0 0 0 0 0 0 0 0 0 4 5 32 5 5 9 24 6 5 6 11 0 2 5 5 5 5
0 0 25 0 0 0 0 0 0 0 0 0 0 0 0 0 0 0 0 0 0 0 0 0 0 0 0 0 1 5 26 5 9 34 29 88 3 5 15 0 0 1 9 5 5
0 2 39 0 0 0 0 0 0 0 0 0 0 0 0 0 0 0 0 0 0 0 0 0 0 0 0 0 0 5 6 64 65 44 35 54 0 0 0 0 0 0 0 0 5
22 0 0 0 0 0 0 0 0 0 0 0 0 0 2 0 0 0 0 0 0 0 0 0 0 0 0 0 0 0 1 3 75 83 63 54 0 0 0 5 5 3 0 0 4
0 0 0 0 0 0 0 0 0 0 0 0 1 0 0 1 0 0 0 0 0 0 0 0 0 0 0 0 0 0 1 0 2 32 46 6 6 5 5 5 5 4 0 0 0
0 0 0 0 0 0 0 0 0 0 0 0 0 0 1 1 0 0 0 0 0 0 0 0 0 0 0 0 0 0 0 0 0 1 5 6 3 4 1 1 5 5 3 0 0
0 0 0 0 0 0 0 0 0 0 0 0 0 0 0 0 5 5 0 0 0 0 0 0 0 0 0 0 0 0 0 0 0 0 0 0 4 70 0 3 10 79 5 3 0
0 0 0 0 0 0 5 5 4 0 0 0 0 0 0 0 5 87 4 3 0 0 0 0 0 0 0 0 0 0 0 0 0 0 2 0 0 0 1 9 74 98 97 82 6
0 0 0 0 0 2 5 82 16 0 0 0 0 0 0 0 0 64 91 4 3 0 0 0 0 0 0 0 0 0 0 0 0 0 0 0 0 5 1 45 38 47 100 96 74
0 0 0 0 4 4 19 97 5 4 0 0 0 0 0 0 0 0 82 28 27 5 0 0 0 0 0 0 0 0 0 0 0 0 0 0 0 0 0 18 3 100 100 100 97
5 5 5 5 5 5 8 74 5 0 0 0 0 0 0 0 0 0 0 100 95 57 5 0 0 0 0 0 0 0 0 0 0 0 0 0 0 0 0 0 0 39 100 100 51
5 7 32 64 100 71 5 9 2 0 0 0 0 0 1 2 3 0 0 19 100 85 100 26 1 0 1 2 0 0 0 0 0 0 0 0 0 0 0 25 56 75 100 100 100

GFSSW_prec_cloud_243.txt.gz
Cloud_Cover
15 12 2 6 9 0 0 2 4 0 0 0 0 0 0 0 0 0 1 5 13 100 5 12 5 12 5 84 42 43 96 98 89 100 49 18 91 14 52 100 100 100 5 14 0
18 20 15 2 3 0 0 0 0 0 0 0 0 0 0 2 0 0 0 1 8 79 45 5 34 46 48 54 94 98 64 99 69 94 76 100 94 5 52 94 79 99 5 5 0
12 17 15 9 0 0 0 0 0 0 1 0 0 0 0 2 0 0 0 0 5 5 35 61 5 84 81 45 100 80 100 82 76 59 28 85 75 91 50 70 96 100 5 5 1
12 7 12 12 0 0 0 0 1 0 2 0 0 0 3 0 0 0 0 0 0 5 64 92 7 99 100 95 100 100 97 99 100 90 40 100 100 100 100 60 99 94 41 91 25
0 0 0 0 0 0 0 2 14 21 1 0 0 0 0 0 0 0 0 0 0 0 4 99 13 82 100 100 89 83 40 100 85 53 100 10 21 100 100 49 89 96 100 52 94
0 0 0 0 0 0 2 7 7 3 5 0 0 35 0 0 0 0 0 0 0 0 0 20 12 19 82 80 100 100 98 100 98 59 65 41 28 87 100 59 50 99 100 37 36
0 0 0 0 6 14 0 2 0 0 0 0 0 0 0 0 0 0 0 0 0 0 0 0 72 25 86 86 21 76 90 100 94 52 38 98 99 97 44 100 76 94 8 6 10
0 0 4 1 15 17 3 0 0 0 0 0 2 0 0 0 0 0 0 0 0 0 0 0 2 5 5 100 59 70 100 90 52 49 36 35 100 20 30 98 100 100 43 99 4
0 5 4 10 12 3 0 0 0 0 0 0 8 0 0 0 0 0 0 0 0 0 0 0 0 4 5 14 100 88 100 100 98 9 33 30 100 53 2 7 90 100 62 7 0
1 45 100 7 0 0 0 6 0 30 19 0 0 0 0 0 0 0 0 0 0 0 0 0 0 0 1 23 98 34 61 38 100 1 0 6 41 100 19 26 90 67 5 5 2
64 100 78 0 0 0 15 0 0 0 0 0 0 0 0 0 0 0 0 0 0 0 0 0 0 0 5 5 29 99 100 100 100 4 4 8 77 100 21 100 100 100 8 5 71
100 72 4 0 0 1 12 1 5 0 0 0 0 0 0 0 0 0 0 0 0 0 0 0 0 0 4 5 25 10 7 97 74 23 0 95 12 36 62 20 85 94 76 5 5
23 4 0 0 7 26 0 0 0 0 0 0 0 0 0 0 0 0 0 0 0 0 0 0 0 0 5 5 6 97 100 100 100 34 0 10 1 4 10 0 29 26 100 68 14
63 4 4 2 45 0 0 0 0 0 0 0 0 0 0 0 0 0 0 0 0 0 0 0 0 0 0 5 5 75 99 94 78 98 30 60 82 100 65 12 0 68 66 77 74
1 0 0 65 0 0 0 0 0 0 0 0 0 0 0 0 0 0 0 0 0 0 0 0 0 0 0 1 5 5 100 86 100 92 46 90 5 100 97 42 14 0 99 100 86
0 0 5 7 0 0 0 0 0 0 0 0 0 0 0 0 0 0 0 0 0 0 0 0 0 0 0 1 3 5 36 98 86 99 98 95 96 100 30 48 25 4 79 100 100
0 0 39 0 0 0 0 0 0 0 0 0 0 0 0 0 0 0 0 0 0 0 0 0 0 0 1 5 5 5 7 68 100 98 73 96 100 100 72 100 27 3 0 5 81
0 33 0 0 0 0 0 0 0 0 0 0 0 0 0 4 0 0 0 0 0 0 0 0 0 0 0 2 5 5 6 67 100 100 96 89 100 100 96 43 5 14 0 2 5
37 0 0 0 0 0 0 0 0 0 0 0 0 1 0 100 18 0 0 0 0 0 0 0 0 0 1 0 1 0 4 6 100 100 96 100 68 6 24 0 5 3 50 0 0
0 0 0 0 0 0 0 0 0 0 0 0 0 1 3 52 97 100 46 0 1 0 0 0 0 0 0 2 0 1 1 30 46 56 100 100 100 100 4 2 5 65 5 1 0
0 0 0 0 0 0 0 0 0 0 0 0 1 0 4 46 97 100 100 99 0 0 0 0 0 0 3 5 0 0 21 49 5 18 59 100 100 100 100 91 8 74 8 1 0
0 2 0 0 1 0 0 0 0 0 0 0 0 0 4 5 8 91 100 100 59 0 0 0 0 0 59 15 3 5 5 5 68 4 15 98 100 100 77 20 8 29 25 2 4
0 0 0 0 0 4 0 0 0 0 0 0 0 0 0 0 4 1 97 88 55 0 0 0 0 0 6 98 68 0 0 0 5 25 6 78 34 100 13 100 37 16 0 5 60
0 1 0 0 0 0 0 4 4 0 0 0 0 0 0 0 2 2 38 34 1 0 0 0 0 0 3 4 2 0 0 0 0 5 15 35 91 100 14 4 39 0 1 5 100
0 0 0 1 1 4 5 5 5 0 0 0 0 2 1 0 2 5 5 96 3 30 3 0 0 1 0 32 85 10 0 0 0 0 0 38 100 97 100 98 1 0 1 5 100
0 0 0 4 5 5 5 5 38 3 5 2 2 0 0 0 5 0 5 5 6 94 2 6 24 1 5 0 26 99 5 0 0 0 0 31 92 100 100 94 1 0 0 63 95
1 5 5 5 5 5 13 59 52 5 5 0 0 0 0 1 2 4 0 0 0 7 9 0 0 54 88 99 48 2 0 0 0 0 0 3 6 100 74 0 0 0 23 93 91

GFSSW_prec_cloud_249.txt.gz
Cloud_Cover
15 9 1 0 0 0 0 0 0 0 2 0 0 82 5 5 4 0 0 2 0 5 32 100 56 51 35 96 100 100 100 100 100 100 100 61 17 85 20 5 63 26 3 1 1
13 5 0 0 0 0 0 0 0 0 0 1 0 23 6 5 0 0 0 0 4 5 5 83 97 94 76 29 100 100 100 100 100 100 91 80 48 5 5 76 39 98 100 2 90
0 0 0 0 0 0 0 0 0 0 0 11 4 3 9 5 4 0 0 0 5 0 5 49 100 100 30 46 100 100 100 100 100 100 100 24 54 85 21 100 56 98 71 5 33
0 0 0 0 0 0 0 0 0 0 0 8 0 0 5 5 0 4 1 0 2 5 5 5 61 100 100 66 100 100 100 100 100 100 97 50 86 92 97 55 95 95 43 23 24
0 0 0 0 3 12 2 0 0 0 0 4 7 0 0 5 0 1 0 0 0 5 5 5 96 100 89 92 100 100 100 100 100 100 98 10 60 25 13 5 5 93 79 87 6
0 0 8 23 20 22 11 0 0 0 0 0 0 27 0 0 0 0 0 5 2 0 5 5 22 100 100 100 100 100 100 78 55 72 100 70 24 5 8 5 77 73 29 98 62
0 14 40 39 22 21 15 0 0 0 0 0 0 0 0 0 0 0 0 0 5 0 2 5 28 10 100 19 21 100 36 25 80 95 100 13 6 68 98 70 87 5 5 100 5
36 100 100 9 15 16 7 0 0 0 0 0 0 0 0 0 0 0 0 0 0 4 0 0 5 0 14 29 79 94 91 62 100 82 41 20 19 5 100 94 5 100 99 82 5
25 25 2 1 1 1 0 0 0 0 0 0 0 0 0 0 0 0 0 0 0 0 0 0 3 0 5 5 36 100 95 18 100 100 100 81 10 10 38 0 5 33 66 8 2
14 20 1 4 5 0 0 0 0 0 0 0 0 0 0 0 0 0 0 0 0 0 0 0 0 0 3 5 3 18 34 94 100 83 94 94 92 0 1 0 44 5 5 4 0
10 23 6 0 0 0 2 0 0 0 0 0 0 0 0 0 0 0 0 0 0 0 0 0 0 0 0 5 38 91 100 92 19 100 99 100 100 5 3 42 2 37 5 5 4
1 21 4 0 0 6 1 0 0 0 0 0 0 0 0 0 0 0 0 0 0 0 0 0 0 0 0 4 5 10 7 59 100 35 87 67 61 8 5 6 11 0 1 4 5
0 0 0 0 8 0 0 0 0 0 0 0 0 0 0 0 0 0 0 0 0 0 0 0 0 0 0 0 0 5 5 58 99 81 99 94 61 0 47 1 0 0 0 0 0
0 0 0 6 0 0 0 0 0 0 0 0 0 0 0 0 0 0 0 0 0 0 0 0 0 0 0 0 0 0 5 18 78 100 100 94 25 0 0 0 0 0 0 0 0
0 0 0 0 0 0 0 0 0 0 0 0 0 0 0 0 0 0 0 0 0 0 0 0 0 0 0 0 1 0 4 90 100 75 73 79 59 0 10 0 0 12 2 0 0
0 0 12 28 0 0 0 0 0 0 0 0 0 0 0 0 0 0 0 0 0 0 0 0 0 0 0 0 1 4 4 87 88 100 16 56 5 4 88 4 5 5 4 0 0
0 0 51 0 0 0 0 0 0 0 0 0 0 0 0 0 0 0 0 0 0 0 0 0 0 0 0 0 0 5 2 27 66 57 7 99 26 2 5 5 28 22 7 4 0
0 32 0 0 0 0 0 0 0 0 0 0 0 0 0 0 0 0 0 0 0 0 0 0 0 0 0 0 0 5 42 12 32 5 1 1 2 0 1 66 3 5 79 4 0
3 0 0 0 0 0 0 0 0 0 0 0 0 0 0 0 0 0 0 0 0 0 0 0 0 0 0 0 0 0 86 1 61 5 64 77 12 97 100 63 5 4 1 0 0
0 0 0 0 0 0 0 0 0 0 0 0 0 0 0 0 0 0 0 0 0 0 0 0 0 0 0 0 0 0 0 43 34 2 52 15 94 58 95 6 14 4 4 0 0
0 0 0 0 0 0 0 0 5 0 0 0 0 0 0 0 0 0 0 0 0 0 0 0 0 0 0 0 0 0 0 34 100 29 2 1 3 93 77 100 47 12 6 1 0
0 53 0 0 0 0 3 0 0 0 0 0 0 0 0 0 0 0 0 0 0 0 0 55 0 0 0 0 0 0 64 62 100 24 0 25 1 98 100 66 85 100 6 4 1
0 8 2 0 0 0 5 21 2 0 0 0 0 0 0 0 0 0 0 0 0 0 0 23 99 4 0 0 0 0 39 76 100 12 2 4 25 100 97 90 86 96 100 3 99
0 1 12 3 1 0 0 0 0 1 0 0 0 0 0 0 0 0 0 0 0 4 3 0 39 100 26 0 0 4 64 100 84 94 30 2 25 100 78 57 100 90 13 8 84
0 0 0 0 3 0 0 0 0 5 2 0 0 0 0 0 0 0 0 0 0 0 0 0 1 99 70 0 74 5 96 100 100 88 86 9 76 100 83 43 96 23 21 90 100
0 0 0 0 0 0 0 0 2 5 4 5 0 0 0 0 0 0 0 0 0 0 0 0 0 64 86 50 80 85 100 100 100 27 36 67 28 100 88 6 0 6 100 100 100
0 0 0 0 0 3 13 4 5 5 5 5 5 5 0 0 0 0 0 0 0 0 0 0 0 96 26 100 88 100 100 38 51 87 55 100 87 77 37 1 4 29 92 100 100